Year,Month,Day,Hour,Minute,Value (Times are PST for temperature in C)
2010,05,07,00,00,6.10
2010,05,07,00,01,6.10
2010,05,07,00,02,6.10
2010,05,07,00,03,6.10
2010,05,07,00,04,6.00
2010,05,07,00,05,6.00
2010,05,07,00,06,6.00
2010,05,07,00,07,6.00
2010,05,07,00,08,6.00
2010,05,07,00,09,6.00
2010,05,07,00,10,6.00
2010,05,07,00,11,6.00
2010,05,07,00,12,6.00
2010,05,07,00,13,6.00
2010,05,07,00,14,5.90
2010,05,07,00,15,5.90
2010,05,07,00,16,5.90
2010,05,07,00,17,5.90
2010,05,07,00,18,5.90
2010,05,07,00,19,5.90
2010,05,07,00,20,5.90
2010,05,07,00,21,5.80
2010,05,07,00,22,5.80
2010,05,07,00,23,5.80
2010,05,07,00,24,5.80
2010,05,07,00,25,5.80
2010,05,07,00,26,5.80
2010,05,07,00,27,5.80
2010,05,07,00,28,5.80
2010,05,07,00,29,5.80
2010,05,07,00,30,5.70
2010,05,07,00,31,5.70
2010,05,07,00,32,5.70
2010,05,07,00,33,5.70
2010,05,07,00,34,5.70
2010,05,07,00,35,5.70
2010,05,07,00,36,5.60
2010,05,07,00,37,5.60
2010,05,07,00,38,5.60
2010,05,07,00,39,5.60
2010,05,07,00,40,5.60
2010,05,07,00,41,5.60
2010,05,07,00,42,5.60
2010,05,07,00,43,5.60
2010,05,07,00,44,5.60
2010,05,07,00,45,5.60
2010,05,07,00,46,5.60
2010,05,07,00,47,5.60
2010,05,07,00,48,5.60
2010,05,07,00,49,5.60
2010,05,07,00,50,5.60
2010,05,07,00,51,5.50
2010,05,07,00,52,5.50
2010,05,07,00,53,5.50
2010,05,07,00,54,5.50
2010,05,07,00,55,5.50
2010,05,07,00,56,5.50
2010,05,07,00,57,5.50
2010,05,07,00,58,5.50
2010,05,07,00,59,5.50
2010,05,07,01,00,5.50
2010,05,07,01,01,5.50
2010,05,07,01,02,5.50
2010,05,07,01,03,5.50
2010,05,07,01,04,5.50
2010,05,07,01,05,5.50
2010,05,07,01,06,5.50
2010,05,07,01,07,5.50
2010,05,07,01,08,5.50
2010,05,07,01,09,5.40
2010,05,07,01,10,5.40
2010,05,07,01,11,5.40
2010,05,07,01,12,5.40
2010,05,07,01,13,5.40
2010,05,07,01,14,5.40
2010,05,07,01,15,5.40
2010,05,07,01,16,5.40
2010,05,07,01,17,5.40
2010,05,07,01,18,5.30
2010,05,07,01,19,5.30
2010,05,07,01,20,5.30
2010,05,07,01,21,5.30
2010,05,07,01,22,5.30
2010,05,07,01,23,5.30
2010,05,07,01,24,5.30
2010,05,07,01,25,5.30
2010,05,07,01,26,5.30
2010,05,07,01,27,5.30
2010,05,07,01,28,5.30
2010,05,07,01,29,5.30
2010,05,07,01,30,5.30
2010,05,07,01,31,5.30
2010,05,07,01,32,5.30
2010,05,07,01,33,5.30
2010,05,07,01,34,5.30
2010,05,07,01,35,5.30
2010,05,07,01,36,5.30
2010,05,07,01,37,5.30
2010,05,07,01,38,5.30
2010,05,07,01,39,5.30
2010,05,07,01,40,5.30
2010,05,07,01,41,5.30
2010,05,07,01,42,5.30
2010,05,07,01,43,5.30
2010,05,07,01,44,5.30
2010,05,07,01,45,5.30
2010,05,07,01,46,5.30
2010,05,07,01,47,5.30
2010,05,07,01,48,5.30
2010,05,07,01,49,5.30
2010,05,07,01,50,5.30
2010,05,07,01,51,5.30
2010,05,07,01,52,5.30
2010,05,07,01,53,5.20
2010,05,07,01,54,5.20
2010,05,07,01,55,5.20
2010,05,07,01,56,5.20
2010,05,07,01,57,5.20
2010,05,07,01,58,5.20
2010,05,07,01,59,5.20
2010,05,07,02,00,5.20
2010,05,07,02,01,5.20
2010,05,07,02,02,5.20
2010,05,07,02,03,5.20
2010,05,07,02,04,5.20
2010,05,07,02,05,5.20
2010,05,07,02,06,5.20
2010,05,07,02,07,5.20
2010,05,07,02,08,5.20
2010,05,07,02,09,5.20
2010,05,07,02,10,5.20
2010,05,07,02,11,5.20
2010,05,07,02,12,5.10
2010,05,07,02,13,5.10
2010,05,07,02,14,5.10
2010,05,07,02,15,5.10
2010,05,07,02,16,5.10
2010,05,07,02,17,5.10
2010,05,07,02,18,5.10
2010,05,07,02,19,5.10
2010,05,07,02,20,5.10
2010,05,07,02,21,5.10
2010,05,07,02,22,5.10
2010,05,07,02,23,5.10
2010,05,07,02,24,5.10
2010,05,07,02,25,5.10
2010,05,07,02,26,5.10
2010,05,07,02,27,5.10
2010,05,07,02,28,5.10
2010,05,07,02,29,5.10
2010,05,07,02,30,5.10
2010,05,07,02,31,5.10
2010,05,07,02,32,5.10
2010,05,07,02,33,5.10
2010,05,07,02,34,5.10
2010,05,07,02,35,5.10
2010,05,07,02,36,5.10
2010,05,07,02,37,5.00
2010,05,07,02,38,5.00
2010,05,07,02,39,5.00
2010,05,07,02,40,5.00
2010,05,07,02,41,5.00
2010,05,07,02,42,4.90
2010,05,07,02,43,4.90
2010,05,07,02,44,5.00
2010,05,07,02,45,5.00
2010,05,07,02,46,5.00
2010,05,07,02,47,5.00
2010,05,07,02,48,5.00
2010,05,07,02,49,5.00
2010,05,07,02,50,5.00
2010,05,07,02,51,5.00
2010,05,07,02,52,5.00
2010,05,07,02,53,5.00
2010,05,07,02,54,5.00
2010,05,07,02,55,5.00
2010,05,07,02,56,5.00
2010,05,07,02,57,5.00
2010,05,07,02,58,5.00
2010,05,07,02,59,5.00
2010,05,07,03,00,5.00
2010,05,07,03,01,5.00
2010,05,07,03,02,5.00
2010,05,07,03,03,5.00
2010,05,07,03,04,5.00
2010,05,07,03,05,5.00
2010,05,07,03,06,5.00
2010,05,07,03,07,5.10
2010,05,07,03,08,5.10
2010,05,07,03,09,5.10
2010,05,07,03,10,5.10
2010,05,07,03,11,5.10
2010,05,07,03,12,5.10
2010,05,07,03,13,5.10
2010,05,07,03,14,5.10
2010,05,07,03,15,5.10
2010,05,07,03,16,5.10
2010,05,07,03,17,5.00
2010,05,07,03,18,5.10
2010,05,07,03,19,5.10
2010,05,07,03,20,5.10
2010,05,07,03,21,5.10
2010,05,07,03,22,5.10
2010,05,07,03,23,5.10
2010,05,07,03,24,5.10
2010,05,07,03,25,5.10
2010,05,07,03,26,5.10
2010,05,07,03,27,5.10
2010,05,07,03,28,5.10
2010,05,07,03,29,5.10
2010,05,07,03,30,5.10
2010,05,07,03,31,5.10
2010,05,07,03,32,5.10
2010,05,07,03,33,5.10
2010,05,07,03,34,5.10
2010,05,07,03,35,5.10
2010,05,07,03,36,5.10
2010,05,07,03,37,5.10
2010,05,07,03,38,5.10
2010,05,07,03,39,5.10
2010,05,07,03,40,5.10
2010,05,07,03,41,5.10
2010,05,07,03,42,5.10
2010,05,07,03,43,5.10
2010,05,07,03,44,5.10
2010,05,07,03,45,5.10
2010,05,07,03,46,5.10
2010,05,07,03,47,5.10
2010,05,07,03,48,5.10
2010,05,07,03,49,5.10
2010,05,07,03,50,5.10
2010,05,07,03,51,5.10
2010,05,07,03,52,5.10
2010,05,07,03,53,5.10
2010,05,07,03,54,5.10
2010,05,07,03,55,5.20
2010,05,07,03,56,5.20
2010,05,07,03,57,5.20
2010,05,07,03,58,5.20
2010,05,07,03,59,5.20
2010,05,07,04,00,5.20
2010,05,07,04,01,5.20
2010,05,07,04,02,5.20
2010,05,07,04,03,5.20
2010,05,07,04,04,5.20
2010,05,07,04,05,5.30
2010,05,07,04,06,5.30
2010,05,07,04,07,5.30
2010,05,07,04,08,5.40
2010,05,07,04,09,5.40
2010,05,07,04,10,5.40
2010,05,07,04,11,5.50
2010,05,07,04,12,5.50
2010,05,07,04,13,5.60
2010,05,07,04,14,5.60
2010,05,07,04,15,5.70
2010,05,07,04,16,5.80
2010,05,07,04,17,5.80
2010,05,07,04,18,5.80
2010,05,07,04,19,5.90
2010,05,07,04,20,5.90
2010,05,07,04,21,6.00
2010,05,07,04,22,6.00
2010,05,07,04,23,6.10
2010,05,07,04,24,6.20
2010,05,07,04,25,6.30
2010,05,07,04,26,6.30
2010,05,07,04,27,6.40
2010,05,07,04,28,6.50
2010,05,07,04,29,6.60
2010,05,07,04,30,6.70
2010,05,07,04,31,6.70
2010,05,07,04,32,6.80
2010,05,07,04,33,6.80
2010,05,07,04,34,6.90
2010,05,07,04,35,6.90
2010,05,07,04,36,7.00
2010,05,07,04,37,7.00
2010,05,07,04,38,7.10
2010,05,07,04,39,7.10
2010,05,07,04,40,7.10
2010,05,07,04,41,7.20
2010,05,07,04,42,7.20
2010,05,07,04,43,7.20
2010,05,07,04,44,7.20
2010,05,07,04,45,7.20
2010,05,07,04,46,7.20
2010,05,07,04,47,7.20
2010,05,07,04,48,7.20
2010,05,07,04,49,7.20
2010,05,07,04,50,7.20
2010,05,07,04,51,7.30
2010,05,07,04,52,7.30
2010,05,07,04,53,7.30
2010,05,07,04,54,7.30
2010,05,07,04,55,7.30
2010,05,07,04,56,7.30
2010,05,07,04,57,7.30
2010,05,07,04,58,7.30
2010,05,07,04,59,7.30
2010,05,07,05,00,7.30
2010,05,07,05,01,7.30
2010,05,07,05,02,7.30
2010,05,07,05,03,7.30
2010,05,07,05,04,7.30
2010,05,07,05,05,7.30
2010,05,07,05,06,7.30
2010,05,07,05,07,7.30
2010,05,07,05,08,7.30
2010,05,07,05,09,7.30
2010,05,07,05,10,7.30
2010,05,07,05,11,7.30
2010,05,07,05,12,7.30
2010,05,07,05,13,7.30
2010,05,07,05,14,7.30
2010,05,07,05,15,7.20
2010,05,07,05,16,7.20
2010,05,07,05,17,7.30
2010,05,07,05,18,7.30
2010,05,07,05,19,7.30
2010,05,07,05,20,7.30
2010,05,07,05,21,7.30
2010,05,07,05,22,7.30
2010,05,07,05,23,7.30
2010,05,07,05,24,7.30
2010,05,07,05,25,7.30
2010,05,07,05,26,7.30
2010,05,07,05,27,7.30
2010,05,07,05,28,7.30
2010,05,07,05,29,7.30
2010,05,07,05,30,7.30
2010,05,07,05,31,7.30
2010,05,07,05,32,7.30
2010,05,07,05,33,7.30
2010,05,07,05,34,7.30
2010,05,07,05,35,7.30
2010,05,07,05,36,7.30
2010,05,07,05,37,7.30
2010,05,07,05,38,7.30
2010,05,07,05,39,7.30
2010,05,07,05,40,7.30
2010,05,07,05,41,7.30
2010,05,07,05,42,7.30
2010,05,07,05,43,7.20
2010,05,07,05,44,7.20
2010,05,07,05,45,7.20
2010,05,07,05,46,7.20
2010,05,07,05,47,7.20
2010,05,07,05,48,7.20
2010,05,07,05,49,7.20
2010,05,07,05,50,7.20
2010,05,07,05,51,7.20
2010,05,07,05,52,7.20
2010,05,07,05,53,7.20
2010,05,07,05,54,7.20
2010,05,07,05,55,7.20
2010,05,07,05,56,7.20
2010,05,07,05,57,7.20
2010,05,07,05,58,7.20
2010,05,07,05,59,7.20
2010,05,07,06,00,7.20
2010,05,07,06,01,7.10
2010,05,07,06,02,7.10
2010,05,07,06,03,7.10
2010,05,07,06,04,7.10
2010,05,07,06,05,7.10
2010,05,07,06,06,7.10
2010,05,07,06,07,7.00
2010,05,07,06,08,7.00
2010,05,07,06,09,7.00
2010,05,07,06,10,7.00
2010,05,07,06,11,6.90
2010,05,07,06,12,6.90
2010,05,07,06,13,7.00
2010,05,07,06,14,7.00
2010,05,07,06,15,7.00
2010,05,07,06,16,7.00
2010,05,07,06,17,7.10
2010,05,07,06,18,7.10
2010,05,07,06,19,7.10
2010,05,07,06,20,7.10
2010,05,07,06,21,7.20
2010,05,07,06,22,7.20
2010,05,07,06,23,7.20
2010,05,07,06,24,7.20
2010,05,07,06,25,7.20
2010,05,07,06,26,7.20
2010,05,07,06,27,7.20
2010,05,07,06,28,7.30
2010,05,07,06,29,7.30
2010,05,07,06,30,7.30
2010,05,07,06,31,7.30
2010,05,07,06,32,7.40
2010,05,07,06,33,7.40
2010,05,07,06,34,7.40
2010,05,07,06,35,7.40
2010,05,07,06,36,7.40
2010,05,07,06,37,7.50
2010,05,07,06,38,7.50
2010,05,07,06,39,7.50
2010,05,07,06,40,7.50
2010,05,07,06,41,7.50
2010,05,07,06,42,7.50
2010,05,07,06,43,7.50
2010,05,07,06,44,7.50
2010,05,07,06,45,7.50
2010,05,07,06,46,7.60
2010,05,07,06,47,7.60
2010,05,07,06,48,7.60
2010,05,07,06,49,7.60
2010,05,07,06,50,7.60
2010,05,07,06,51,7.60
2010,05,07,06,52,7.60
2010,05,07,06,53,7.70
2010,05,07,06,54,7.70
2010,05,07,06,55,7.70
2010,05,07,06,56,7.70
2010,05,07,06,57,7.80
2010,05,07,06,58,7.80
2010,05,07,06,59,7.80
2010,05,07,07,00,7.80
2010,05,07,07,01,7.80
2010,05,07,07,02,7.90
2010,05,07,07,03,7.90
2010,05,07,07,04,7.90
2010,05,07,07,05,8.00
2010,05,07,07,06,8.00
2010,05,07,07,07,8.10
2010,05,07,07,08,8.10
2010,05,07,07,09,8.20
2010,05,07,07,10,8.20
2010,05,07,07,11,8.20
2010,05,07,07,12,8.30
2010,05,07,07,13,8.30
2010,05,07,07,14,8.40
2010,05,07,07,15,8.50
2010,05,07,07,16,8.60
2010,05,07,07,17,8.60
2010,05,07,07,18,8.70
2010,05,07,07,19,8.70
2010,05,07,07,20,8.80
2010,05,07,07,21,8.90
2010,05,07,07,22,8.90
2010,05,07,07,23,9.00
2010,05,07,07,24,9.10
2010,05,07,07,25,9.10
2010,05,07,07,26,9.20
2010,05,07,07,27,9.20
2010,05,07,07,28,9.30
2010,05,07,07,29,9.30
2010,05,07,07,30,9.30
2010,05,07,07,31,9.40
2010,05,07,07,32,9.40
2010,05,07,07,33,9.40
2010,05,07,07,34,9.40
2010,05,07,07,35,9.50
2010,05,07,07,36,9.50
2010,05,07,07,37,9.50
2010,05,07,07,38,9.50
2010,05,07,07,39,9.60
2010,05,07,07,40,9.60
2010,05,07,07,41,9.60
2010,05,07,07,42,9.60
2010,05,07,07,43,9.60
2010,05,07,07,44,9.60
2010,05,07,07,45,9.60
2010,05,07,07,46,9.60
2010,05,07,07,47,9.70
2010,05,07,07,48,9.70
2010,05,07,07,49,9.70
2010,05,07,07,50,9.70
2010,05,07,07,51,9.70
2010,05,07,07,52,9.70
2010,05,07,07,53,9.70
2010,05,07,07,54,9.70
2010,05,07,07,55,9.80
2010,05,07,07,56,9.80
2010,05,07,07,57,9.80
2010,05,07,07,58,9.80
2010,05,07,07,59,9.80
2010,05,07,08,00,9.80
2010,05,07,08,01,9.80
2010,05,07,08,02,9.80
2010,05,07,08,03,9.80
2010,05,07,08,04,9.80
2010,05,07,08,05,9.80
2010,05,07,08,06,9.80
2010,05,07,08,07,9.80
2010,05,07,08,08,9.90
2010,05,07,08,09,9.90
2010,05,07,08,10,9.90
2010,05,07,08,11,9.90
2010,05,07,08,12,9.90
2010,05,07,08,13,9.90
2010,05,07,08,14,9.90
2010,05,07,08,15,9.80
2010,05,07,08,16,9.80
2010,05,07,08,17,9.80
2010,05,07,08,18,9.90
2010,05,07,08,19,9.90
2010,05,07,08,20,9.90
2010,05,07,08,21,9.90
2010,05,07,08,22,9.90
2010,05,07,08,23,9.90
2010,05,07,08,24,9.90
2010,05,07,08,25,9.90
2010,05,07,08,26,10.00
2010,05,07,08,27,10.00
2010,05,07,08,28,10.10
2010,05,07,08,29,10.10
2010,05,07,08,30,10.10
2010,05,07,08,31,10.20
2010,05,07,08,32,10.20
2010,05,07,08,33,10.30
2010,05,07,08,34,10.30
2010,05,07,08,35,10.30
2010,05,07,08,36,10.40
2010,05,07,08,37,10.40
2010,05,07,08,38,10.40
2010,05,07,08,39,10.50
2010,05,07,08,40,10.50
2010,05,07,08,41,10.60
2010,05,07,08,42,10.60
2010,05,07,08,43,10.60
2010,05,07,08,44,10.60
2010,05,07,08,45,10.60
2010,05,07,08,46,10.50
2010,05,07,08,47,10.50
2010,05,07,08,48,10.50
2010,05,07,08,49,10.50
2010,05,07,08,50,10.50
2010,05,07,08,51,10.50
2010,05,07,08,52,10.50
2010,05,07,08,53,10.50
2010,05,07,08,54,10.50
2010,05,07,08,55,10.60
2010,05,07,08,56,10.60
2010,05,07,08,57,10.60
2010,05,07,08,58,10.70
2010,05,07,08,59,10.70
2010,05,07,09,00,10.80
2010,05,07,09,01,10.80
2010,05,07,09,02,10.80
2010,05,07,09,03,10.80
2010,05,07,09,04,10.80
2010,05,07,09,05,10.70
2010,05,07,09,06,10.70
2010,05,07,09,07,10.70
2010,05,07,09,08,10.70
2010,05,07,09,09,10.70
2010,05,07,09,10,10.70
2010,05,07,09,11,10.70
2010,05,07,09,12,10.70
2010,05,07,09,13,10.70
2010,05,07,09,14,10.70
2010,05,07,09,15,10.70
2010,05,07,09,16,10.80
2010,05,07,09,17,10.80
2010,05,07,09,18,10.80
2010,05,07,09,19,10.80
2010,05,07,09,20,10.90
2010,05,07,09,21,10.90
2010,05,07,09,22,10.90
2010,05,07,09,23,11.00
2010,05,07,09,24,11.00
2010,05,07,09,25,10.90
2010,05,07,09,26,10.90
2010,05,07,09,27,10.90
2010,05,07,09,28,10.90
2010,05,07,09,29,10.90
2010,05,07,09,30,10.90
2010,05,07,09,31,10.90
2010,05,07,09,32,10.90
2010,05,07,09,33,10.90
2010,05,07,09,34,10.90
2010,05,07,09,35,10.90
2010,05,07,09,36,10.90
2010,05,07,09,37,10.90
2010,05,07,09,38,10.90
2010,05,07,09,39,10.90
2010,05,07,09,40,10.90
2010,05,07,09,41,10.90
2010,05,07,09,42,10.90
2010,05,07,09,43,10.90
2010,05,07,09,44,10.90
2010,05,07,09,45,10.90
2010,05,07,09,46,10.90
2010,05,07,09,47,10.90
2010,05,07,09,48,10.90
2010,05,07,09,49,11.00
2010,05,07,09,50,11.00
2010,05,07,09,51,11.00
2010,05,07,09,52,11.00
2010,05,07,09,53,11.00
2010,05,07,09,54,10.90
2010,05,07,09,55,10.80
2010,05,07,09,56,10.90
2010,05,07,09,57,10.90
2010,05,07,09,58,10.90
2010,05,07,09,59,11.00
2010,05,07,10,00,11.00
2010,05,07,10,01,11.10
2010,05,07,10,02,11.20
2010,05,07,10,03,11.20
2010,05,07,10,04,11.20
2010,05,07,10,05,11.20
2010,05,07,10,06,11.20
2010,05,07,10,07,11.20
2010,05,07,10,08,11.10
2010,05,07,10,09,11.00
2010,05,07,10,10,11.00
2010,05,07,10,11,10.90
2010,05,07,10,12,10.80
2010,05,07,10,13,10.80
2010,05,07,10,14,10.80
2010,05,07,10,15,10.90
2010,05,07,10,16,10.90
2010,05,07,10,17,10.90
2010,05,07,10,18,10.90
2010,05,07,10,19,10.80
2010,05,07,10,20,10.80
2010,05,07,10,21,10.80
2010,05,07,10,22,10.80
2010,05,07,10,23,10.80
2010,05,07,10,24,10.90
2010,05,07,10,25,10.90
2010,05,07,10,26,11.00
2010,05,07,10,27,11.00
2010,05,07,10,28,11.10
2010,05,07,10,29,11.10
2010,05,07,10,30,11.20
2010,05,07,10,31,11.20
2010,05,07,10,32,11.20
2010,05,07,10,33,11.20
2010,05,07,10,34,11.20
2010,05,07,10,35,11.20
2010,05,07,10,36,11.20
2010,05,07,10,37,11.20
2010,05,07,10,38,11.20
2010,05,07,10,39,11.20
2010,05,07,10,40,11.10
2010,05,07,10,41,11.10
2010,05,07,10,42,11.00
2010,05,07,10,43,11.00
2010,05,07,10,44,11.00
2010,05,07,10,45,11.10
2010,05,07,10,46,11.10
2010,05,07,10,47,11.10
2010,05,07,10,48,11.10
2010,05,07,10,49,11.10
2010,05,07,10,50,11.10
2010,05,07,10,51,11.10
2010,05,07,10,52,11.10
2010,05,07,10,53,11.20
2010,05,07,10,54,11.20
2010,05,07,10,55,11.20
2010,05,07,10,56,11.10
2010,05,07,10,57,11.10
2010,05,07,10,58,11.10
2010,05,07,10,59,11.20
2010,05,07,11,00,11.20
2010,05,07,11,01,11.20
2010,05,07,11,02,11.20
2010,05,07,11,03,11.10
2010,05,07,11,04,11.10
2010,05,07,11,05,11.10
2010,05,07,11,06,11.20
2010,05,07,11,07,11.20
2010,05,07,11,08,11.20
2010,05,07,11,09,11.20
2010,05,07,11,10,11.20
2010,05,07,11,11,11.20
2010,05,07,11,12,11.30
2010,05,07,11,13,11.30
2010,05,07,11,14,11.30
2010,05,07,11,15,11.30
2010,05,07,11,16,11.30
2010,05,07,11,17,11.30
2010,05,07,11,18,11.30
2010,05,07,11,19,11.40
2010,05,07,11,20,11.40
2010,05,07,11,21,11.30
2010,05,07,11,22,11.30
2010,05,07,11,23,11.30
2010,05,07,11,24,11.40
2010,05,07,11,25,11.40
2010,05,07,11,26,11.50
2010,05,07,11,27,11.60
2010,05,07,11,28,11.60
2010,05,07,11,29,11.50
2010,05,07,11,30,11.60
2010,05,07,11,31,11.60
2010,05,07,11,32,11.60
2010,05,07,11,33,11.60
2010,05,07,11,34,11.60
2010,05,07,11,35,11.70
2010,05,07,11,36,11.70
2010,05,07,11,37,11.80
2010,05,07,11,38,11.80
2010,05,07,11,39,11.90
2010,05,07,11,40,11.90
2010,05,07,11,41,11.90
2010,05,07,11,42,11.90
2010,05,07,11,43,11.90
2010,05,07,11,44,11.80
2010,05,07,11,45,11.80
2010,05,07,11,46,11.80
2010,05,07,11,47,11.80
2010,05,07,11,48,11.80
2010,05,07,11,49,11.80
2010,05,07,11,50,11.80
2010,05,07,11,51,11.80
2010,05,07,11,52,11.70
2010,05,07,11,53,11.70
2010,05,07,11,54,11.80
2010,05,07,11,55,11.80
2010,05,07,11,56,11.80
2010,05,07,11,57,11.90
2010,05,07,11,58,11.90
2010,05,07,11,59,11.90
2010,05,07,12,00,12.00
2010,05,07,12,01,12.10
2010,05,07,12,02,12.10
2010,05,07,12,03,12.20
2010,05,07,12,04,12.20
2010,05,07,12,05,12.20
2010,05,07,12,06,12.20
2010,05,07,12,07,12.20
2010,05,07,12,08,12.20
2010,05,07,12,09,12.20
2010,05,07,12,10,12.30
2010,05,07,12,11,12.30
2010,05,07,12,12,12.30
2010,05,07,12,13,12.30
2010,05,07,12,14,12.30
2010,05,07,12,15,12.30
2010,05,07,12,16,12.30
2010,05,07,12,17,12.30
2010,05,07,12,18,12.30
2010,05,07,12,19,12.30
2010,05,07,12,20,12.30
2010,05,07,12,21,12.30
2010,05,07,12,22,12.30
2010,05,07,12,23,12.30
2010,05,07,12,24,12.40
2010,05,07,12,25,12.50
2010,05,07,12,26,12.60
2010,05,07,12,27,12.60
2010,05,07,12,28,12.60
2010,05,07,12,29,12.60
2010,05,07,12,30,12.60
2010,05,07,12,31,12.60
2010,05,07,12,32,12.60
2010,05,07,12,33,12.60
2010,05,07,12,34,12.60
2010,05,07,12,35,12.60
2010,05,07,12,36,12.60
2010,05,07,12,37,12.60
2010,05,07,12,38,12.70
2010,05,07,12,39,12.70
2010,05,07,12,40,12.70
2010,05,07,12,41,12.70
2010,05,07,12,42,12.70
2010,05,07,12,43,12.80
2010,05,07,12,44,12.80
2010,05,07,12,45,12.80
2010,05,07,12,46,12.80
2010,05,07,12,47,12.80
2010,05,07,12,48,12.80
2010,05,07,12,49,12.80
2010,05,07,12,50,12.80
2010,05,07,12,51,12.80
2010,05,07,12,52,12.80
2010,05,07,12,53,12.80
2010,05,07,12,54,12.80
2010,05,07,12,55,12.80
2010,05,07,12,56,12.70
2010,05,07,12,57,12.70
2010,05,07,12,58,12.70
2010,05,07,12,59,12.70
2010,05,07,13,00,12.70
2010,05,07,13,01,12.70
2010,05,07,13,02,12.70
2010,05,07,13,03,12.80
2010,05,07,13,04,12.80
2010,05,07,13,05,12.80
2010,05,07,13,06,12.80
2010,05,07,13,07,12.80
2010,05,07,13,08,12.80
2010,05,07,13,09,12.80
2010,05,07,13,10,12.80
2010,05,07,13,11,12.70
2010,05,07,13,12,12.70
2010,05,07,13,13,12.70
2010,05,07,13,14,12.70
2010,05,07,13,15,12.70
2010,05,07,13,16,12.70
2010,05,07,13,17,12.70
2010,05,07,13,18,12.80
2010,05,07,13,19,12.80
2010,05,07,13,20,12.90
2010,05,07,13,21,13.00
2010,05,07,13,22,13.10
2010,05,07,13,23,13.10
2010,05,07,13,24,13.10
2010,05,07,13,25,13.10
2010,05,07,13,26,13.10
2010,05,07,13,27,13.20
2010,05,07,13,28,13.20
2010,05,07,13,29,13.20
2010,05,07,13,30,13.20
2010,05,07,13,31,13.20
2010,05,07,13,32,13.20
2010,05,07,13,33,13.20
2010,05,07,13,34,13.30
2010,05,07,13,35,13.30
2010,05,07,13,36,13.30
2010,05,07,13,37,13.30
2010,05,07,13,38,13.30
2010,05,07,13,39,13.30
2010,05,07,13,40,13.30
2010,05,07,13,41,13.30
2010,05,07,13,42,13.30
2010,05,07,13,43,13.30
2010,05,07,13,44,13.30
2010,05,07,13,45,13.30
2010,05,07,13,46,13.30
2010,05,07,13,47,13.30
2010,05,07,13,48,13.30
2010,05,07,13,49,13.30
2010,05,07,13,50,13.30
2010,05,07,13,51,13.30
2010,05,07,13,52,13.30
2010,05,07,13,53,13.30
2010,05,07,13,54,13.40
2010,05,07,13,55,13.40
2010,05,07,13,56,13.50
2010,05,07,13,57,13.50
2010,05,07,13,58,13.60
2010,05,07,13,59,13.60
2010,05,07,14,00,13.70
2010,05,07,14,01,13.60
2010,05,07,14,02,13.60
2010,05,07,14,03,13.60
2010,05,07,14,04,13.60
2010,05,07,14,05,13.60
2010,05,07,14,06,13.60
2010,05,07,14,07,13.60
2010,05,07,14,08,13.60
2010,05,07,14,09,13.50
2010,05,07,14,10,13.40
2010,05,07,14,11,13.40
2010,05,07,14,12,13.40
2010,05,07,14,13,13.50
2010,05,07,14,14,13.60
2010,05,07,14,15,13.60
2010,05,07,14,16,13.60
2010,05,07,14,17,13.50
2010,05,07,14,18,13.50
2010,05,07,14,19,13.50
2010,05,07,14,20,13.50
2010,05,07,14,21,13.50
2010,05,07,14,22,13.50
2010,05,07,14,23,13.40
2010,05,07,14,24,13.50
2010,05,07,14,25,13.50
2010,05,07,14,26,13.60
2010,05,07,14,27,13.70
2010,05,07,14,28,13.80
2010,05,07,14,29,13.80
2010,05,07,14,30,13.80
2010,05,07,14,31,13.70
2010,05,07,14,32,13.70
2010,05,07,14,33,13.70
2010,05,07,14,34,13.80
2010,05,07,14,35,13.80
2010,05,07,14,36,13.80
2010,05,07,14,37,13.80
2010,05,07,14,38,13.80
2010,05,07,14,39,13.80
2010,05,07,14,40,13.80
2010,05,07,14,41,13.80
2010,05,07,14,42,13.80
2010,05,07,14,43,13.80
2010,05,07,14,44,13.80
2010,05,07,14,45,13.80
2010,05,07,14,46,13.80
2010,05,07,14,47,13.80
2010,05,07,14,48,13.80
2010,05,07,14,49,13.80
2010,05,07,14,50,13.80
2010,05,07,14,51,13.80
2010,05,07,14,52,13.80
2010,05,07,14,53,13.80
2010,05,07,14,54,13.80
2010,05,07,14,55,13.90
2010,05,07,14,56,13.90
2010,05,07,14,57,14.00
2010,05,07,14,58,14.00
2010,05,07,14,59,14.00
2010,05,07,15,00,14.00
2010,05,07,15,01,14.10
2010,05,07,15,02,14.10
2010,05,07,15,03,14.20
2010,05,07,15,04,14.20
2010,05,07,15,05,14.20
2010,05,07,15,06,14.20
2010,05,07,15,07,14.20
2010,05,07,15,08,14.20
2010,05,07,15,09,14.20
2010,05,07,15,10,14.20
2010,05,07,15,11,14.20
2010,05,07,15,12,14.30
2010,05,07,15,13,14.20
2010,05,07,15,14,14.30
2010,05,07,15,15,14.30
2010,05,07,15,16,14.20
2010,05,07,15,17,14.20
2010,05,07,15,18,14.20
2010,05,07,15,19,14.20
2010,05,07,15,20,14.30
2010,05,07,15,21,14.30
2010,05,07,15,22,14.30
2010,05,07,15,23,14.40
2010,05,07,15,24,14.40
2010,05,07,15,25,14.40
2010,05,07,15,26,14.50
2010,05,07,15,27,14.60
2010,05,07,15,28,14.60
2010,05,07,15,29,14.60
2010,05,07,15,30,14.60
2010,05,07,15,31,14.70
2010,05,07,15,32,14.70
2010,05,07,15,33,14.70
2010,05,07,15,34,14.70
2010,05,07,15,35,14.60
2010,05,07,15,36,14.60
2010,05,07,15,37,14.60
2010,05,07,15,38,14.50
2010,05,07,15,39,14.50
2010,05,07,15,40,14.50
2010,05,07,15,41,14.50
2010,05,07,15,42,14.60
2010,05,07,15,43,14.60
2010,05,07,15,44,14.60
2010,05,07,15,45,14.70
2010,05,07,15,46,14.70
2010,05,07,15,47,14.70
2010,05,07,15,48,14.80
2010,05,07,15,49,14.80
2010,05,07,15,50,14.80
2010,05,07,15,51,14.80
2010,05,07,15,52,14.80
2010,05,07,15,53,14.80
2010,05,07,15,54,14.80
2010,05,07,15,55,14.80
2010,05,07,15,56,14.80
2010,05,07,15,57,14.80
2010,05,07,15,58,14.80
2010,05,07,15,59,14.80
2010,05,07,16,00,14.70
2010,05,07,16,01,14.70
2010,05,07,16,02,14.80
2010,05,07,16,03,14.80
2010,05,07,16,04,14.80
2010,05,07,16,05,14.80
2010,05,07,16,06,14.90
2010,05,07,16,07,14.90
2010,05,07,16,08,15.00
2010,05,07,16,09,15.00
2010,05,07,16,10,15.00
2010,05,07,16,11,15.00
2010,05,07,16,12,15.00
2010,05,07,16,13,15.00
2010,05,07,16,14,15.00
2010,05,07,16,15,14.90
2010,05,07,16,16,14.80
2010,05,07,16,17,14.80
2010,05,07,16,18,14.80
2010,05,07,16,19,14.90
2010,05,07,16,20,14.90
2010,05,07,16,21,15.00
2010,05,07,16,22,15.00
2010,05,07,16,23,15.00
2010,05,07,16,24,15.00
2010,05,07,16,25,15.00
2010,05,07,16,26,15.00
2010,05,07,16,27,15.00
2010,05,07,16,28,15.00
2010,05,07,16,29,15.00
2010,05,07,16,30,15.00
2010,05,07,16,31,14.90
2010,05,07,16,32,14.70
2010,05,07,16,33,14.60
2010,05,07,16,34,14.60
2010,05,07,16,35,14.60
2010,05,07,16,36,14.60
2010,05,07,16,37,14.60
2010,05,07,16,38,14.60
2010,05,07,16,39,14.70
2010,05,07,16,40,14.70
2010,05,07,16,41,14.70
2010,05,07,16,42,14.70
2010,05,07,16,43,14.70
2010,05,07,16,44,14.60
2010,05,07,16,45,14.60
2010,05,07,16,46,14.60
2010,05,07,16,47,14.60
2010,05,07,16,48,14.60
2010,05,07,16,49,14.60
2010,05,07,16,50,14.60
2010,05,07,16,51,14.70
2010,05,07,16,52,14.70
2010,05,07,16,53,14.70
2010,05,07,16,54,14.80
2010,05,07,16,55,14.80
2010,05,07,16,56,14.90
2010,05,07,16,57,15.00
2010,05,07,16,58,15.00
2010,05,07,16,59,15.00
2010,05,07,17,00,15.00
2010,05,07,17,01,15.00
2010,05,07,17,02,15.10
2010,05,07,17,03,15.10
2010,05,07,17,04,15.10
2010,05,07,17,05,15.10
2010,05,07,17,06,15.10
2010,05,07,17,07,15.10
2010,05,07,17,08,15.10
2010,05,07,17,09,15.20
2010,05,07,17,10,15.20
2010,05,07,17,11,15.20
2010,05,07,17,12,15.30
2010,05,07,17,13,15.30
2010,05,07,17,14,15.30
2010,05,07,17,15,15.30
2010,05,07,17,16,15.30
2010,05,07,17,17,15.30
2010,05,07,17,18,15.30
2010,05,07,17,19,15.40
2010,05,07,17,20,15.40
2010,05,07,17,21,15.40
2010,05,07,17,22,15.40
2010,05,07,17,23,15.40
2010,05,07,17,24,15.50
2010,05,07,17,25,15.50
2010,05,07,17,26,15.50
2010,05,07,17,27,15.50
2010,05,07,17,28,15.50
2010,05,07,17,29,15.40
2010,05,07,17,30,15.40
2010,05,07,17,31,15.40
2010,05,07,17,32,15.30
2010,05,07,17,33,15.30
2010,05,07,17,34,15.30
2010,05,07,17,35,15.40
2010,05,07,17,36,15.40
2010,05,07,17,37,15.40
2010,05,07,17,38,15.40
2010,05,07,17,39,15.40
2010,05,07,17,40,15.40
2010,05,07,17,41,15.40